Wind_Speed
29 29 28 29 30 30 32 34 34 35 33 32 35 38 38 41 43 43 42 40 40 39 37 35 35 32 32 31 33 31 40 36 35 32 34 39 42 42 44 44 45 46 48
35 34 34 33 30 31 34 36 37 36 37 36 35 38 41 42 45 46 48 47 46 44 44 44 44 42 41 42 42 40 41 43 41 43 41 38 43 46 48 48 52 51 50
40 40 40 37 36 34 33 33 37 39 41 40 39 39 39 41 43 46 49 53 54 53 52 52 53 52 48 48 49 51 47 48 49 49 50 49 48 47 47 52 53 53 54
44 44 43 42 43 42 41 39 37 38 41 41 42 42 43 44 46 49 49 51 53 55 55 54 53 54 54 51 51 53 56 57 56 55 55 52 53 52 54 56 54 58 60
49 49 48 48 48 49 48 46 43 39 38 41 42 44 45 46 49 48 48 49 49 51 54 53 54 54 53 51 53 55 55 60 62 60 58 57 56 58 59 57 59 61 60
56 55 54 53 53 52 51 48 42 44 43 41 42 44 47 48 48 48 50 49 50 54 58 57 55 56 55 55 57 57 59 62 62 63 64 61 62 63 64 63 60 60 65
56 56 55 55 55 55 53 48 48 44 46 46 49 50 51 48 49 52 52 52 56 57 58 58 60 61 60 60 61 60 61 67 67 66 68 67 70 69 68 68 66 65 68
56 55 56 56 56 56 54 52 50 50 52 55 56 53 55 58 57 58 61 61 63 61 63 66 67 65 65 66 66 64 65 68 71 72 73 72 77 73 68 70 69 67 67
55 55 56 57 56 56 56 55 55 57 57 57 59 61 64 66 66 67 68 66 66 67 73 71 71 70 68 68 70 70 72 75 76 75 76 77 79 72 68 71 72 72 68
59 57 58 58 58 58 61 60 58 60 63 65 67 67 67 69 70 70 69 69 70 75 72 72 72 72 72 71 69 73 75 78 78 78 80 78 79 73 70 73 73 71 72
63 62 63 64 64 62 61 63 66 68 68 71 73 70 69 68 69 69 69 73 75 76 76 81 81 81 79 79 79 79 81 82 80 80 79 80 78 77 75 74 70 72 71
67 66 69 65 62 62 67 71 73 72 74 73 68 68 69 70 72 73 71 74 74 78 80 82 84 81 81 83 85 85 86 86 83 81 81 81 81 79 78 77 73 70 74
67 63 64 65 68 71 74 75 76 79 74 71 70 73 73 74 75 78 79 75 73 74 83 88 85 82 83 83 84 86 88 87 86 85 84 85 82 80 79 71 68 72 77
81 77 75 76 76 77 77 74 75 72 70 71 74 74 76 76 79 81 80 77 80 82 85 86 83 80 83 85 86 88 88 90 90 87 86 85 84 78 73 70 71 73 79
86 82 83 83 78 77 77 77 70 67 73 75 80 79 80 80 76 80 82 87 91 90 89 86 88 89 85 87 88 87 87 87 86 86 82 77 75 72 71 72 74 76 81
79 74 71 74 73 75 75 72 72 73 76 76 78 83 84 82 84 86 91 93 95 96 94 92 88 84 82 84 86 85 84 81 80 78 76 73 71 71 73 76 79 82 86
72 71 71 73 74 75 73 74 73 74 77 77 80 80 82 88 88 92 93 96 98 95 93 93 90 85 79 78 79 77 75 74 72 71 69 69 70 73 77 80 84 87 90
75 74 75 75 77 80 79 79 80 77 75 79 82 88 91 90 93 94 98 104 99 98 94 92 86 81 77 75 72 72 70 68 69 69 70 71 74 78 80 83 87 88 90
81 80 80 81 81 82 83 83 83 79 81 83 85 88 91 95 96 102 104 103 99 95 91 86 83 78 74 70 68 68 68 67 69 69 72 75 77 79 81 83 85 88 84
84 84 82 83 81 82 85 85 86 84 82 80 91 89 92 96 104 103 105 97 94 90 86 83 81 77 72 70 68 70 69 70 71 71 75 76 76 76 79 81 83 81 87
84 82 82 82 82 86 85 89 85 84 87 89 91 93 97 100 103 106 100 92 84 84 77 78 78 76 73 71 70 71 73 75 76 76 74 74 71 73 75 77 79 85 91
91 89 88 87 87 89 90 88 88 89 88 89 92 97 101 103 105 98 94 83 83 80 81 85 82 78 76 74 72 72 74 75 76 76 72 67 68 74 75 80 83 85 88
89 89 90 90 89 87 87 88 90 92 93 93 95 99 101 103 98 91 87 84 80 82 86 83 82 80 79 77 75 74 73 74 71 67 67 67 70 74 78 82 83 84 85
89 88 85 86 88 89 87 92 93 90 94 95 100 102 103 98 92 84 86 82 83 84 81 80 80 77 76 75 75 75 75 73 67 66 67 69 72 74 78 79 82 83 77
90 89 92 95 91 91 94 92 94 97 95 98 104 101 95 93 87 85 84 85 83 83 83 80 79 79 77 77 76 73 71 72 70 68 69 72 75 74 74 78 78 74 63
87 88 88 89 93 95 95 94 92 96 98 100 101 98 93 85 84 85 86 84 80 81 82 81 80 77 76 74 74 73 72 72 70 73 73 73 75 74 79 74 67 61 53
Wind_Direction
294 296 303 307 305 305 305 306 305 306 306 313 312 306 302 306 309 309 312 317 319 313 313 308 312 306 306 309 310 311 321 317 316 305 298 297 298 299 299 295 294 294 292
288 292 294 300 301 299 300 300 303 304 306 307 308 308 306 305 301 300 301 306 309 307 306 309 310 310 306 305 306 310 312 309 300 303 307 302 291 288 289 290 289 290 288
286 291 292 296 298 299 301 300 300 299 299 299 300 301 304 304 305 304 303 302 304 305 306 306 306 310 310 310 310 309 309 311 310 308 299 297 298 291 285 284 284 286 286
286 288 290 294 296 298 299 298 296 295 295 293 293 295 298 301 303 302 301 298 298 301 301 303 304 304 305 304 307 307 306 307 306 307 305 301 294 294 289 291 287 284 282
283 285 287 289 293 296 299 298 293 290 290 291 291 293 297 297 298 299 299 299 299 299 299 300 300 300 300 300 306 305 303 304 303 303 300 300 298 296 294 289 287 287 287
279 281 285 288 290 294 297 297 294 289 286 290 291 294 296 298 299 303 304 302 300 302 299 299 299 300 300 299 301 301 299 301 298 297 300 298 301 301 295 291 288 286 292
279 281 283 286 289 291 293 293 294 289 287 292 297 299 299 298 298 299 302 299 298 298 299 300 300 300 299 300 299 298 295 300 300 295 297 293 298 302 296 293 290 287 290
279 282 284 285 287 291 292 292 290 293 295 297 296 297 298 297 298 299 301 301 298 298 299 301 301 298 299 300 300 296 296 300 300 299 296 296 298 299 293 290 290 288 288
281 284 285 286 289 289 290 291 293 295 296 296 297 296 298 298 298 300 301 298 297 297 301 299 297 297 297 299 297 296 295 296 296 295 294 294 295 295 291 288 290 289 285
280 281 280 283 286 288 291 293 293 296 297 297 297 298 297 297 298 300 298 297 297 301 300 300 300 300 297 298 295 291 290 291 291 291 293 293 294 293 290 289 291 288 289
276 278 280 283 286 289 288 291 295 296 296 298 298 297 297 296 295 294 294 296 301 304 301 303 303 302 298 295 293 290 289 291 290 290 291 293 294 293 290 291 291 289 282
277 278 279 281 283 287 289 290 294 296 297 296 293 292 293 292 293 296 293 298 302 303 302 301 299 296 294 293 292 292 292 293 294 293 292 293 294 292 292 293 292 286 282
277 279 280 281 284 287 289 290 292 298 294 292 293 294 292 293 294 297 297 298 298 300 301 301 299 296 294 293 291 291 291 291 291 291 291 293 293 292 294 291 287 284 284
277 278 280 282 283 287 288 290 295 294 291 287 288 290 291 290 292 295 297 300 298 299 300 301 298 294 292 291 289 289 290 291 291 291 290 290 292 293 292 290 289 288 288
277 279 281 284 286 286 285 289 288 281 284 286 288 289 291 294 296 298 300 299 300 301 303 299 298 297 293 291 290 288 288 289 290 290 291 292 292 292 292 290 290 290 290
278 280 281 284 285 282 282 285 285 285 286 288 289 290 294 297 298 302 300 301 303 304 304 298 297 295 292 291 290 290 291 292 292 292 293 294 292 292 292 291 291 291 290
276 277 278 279 280 279 279 280 282 286 290 291 291 293 295 297 300 301 303 305 306 303 301 299 299 300 297 294 293 294 294 293 291 291 291 292 292 292 292 292 291 290 289
275 278 277 276 276 276 276 280 284 289 293 294 294 295 299 299 304 305 306 307 305 301 300 299 300 299 298 297 295 295 295 293 292 292 292 292 292 294 293 291 291 292 290
274 273 272 272 273 274 278 282 288 291 293 296 293 299 299 303 304 307 307 305 303 302 301 300 300 299 297 296 295 294 293 292 291 292 292 292 293 292 291 291 291 292 298
267 268 269 270 272 277 280 285 287 289 290 292 293 297 298 302 306 305 304 303 302 301 303 301 299 299 298 297 295 294 294 292 293 293 293 294 294 294 291 294 294 299 298
266 267 269 272 274 278 281 283 286 286 289 293 295 298 302 303 303 303 302 301 303 301 300 301 301 300 300 298 296 295 295 295 295 296 295 298 297 294 294 297 300 298 296
266 269 270 272 273 276 279 283 285 287 291 293 294 297 300 300 301 301 300 301 298 297 299 301 299 298 299 298 298 297 297 298 300 299 300 299 297 297 298 301 299 298 296
265 268 270 271 274 277 279 282 284 289 292 292 293 297 298 301 299 299 298 295 295 299 301 301 299 297 297 296 297 298 300 301 300 300 301 302 300 298 299 300 300 299 300
267 268 271 272 274 278 279 283 286 288 289 292 294 296 299 298 298 295 293 296 299 301 301 301 300 299 299 300 300 300 301 300 300 301 302 302 302 301 301 302 302 302 303
268 271 272 274 275 275 281 283 283 286 289 292 294 296 295 294 294 293 294 298 301 301 299 299 299 301 299 300 300 299 300 301 302 304 302 302 303 304 305 305 305 303 305
266 268 270 272 273 277 280 281 283 285 290 290 291 292 291 293 292 293 297 300 300 298 300 299 298 301 299 299 299 300 300 301 303 302 303 304 304 305 308 307 309 311 310
Height
10842 10841 10839 10837 10834 10831 10829 10827 10825 10823 10821 10819 10816 10813 10810 10806 10803 10800 10798 10796 10794 10790 10788 10785 10782 10779 10776 10773 10770 10768 10765 10761 10758 10755 10752 10749 10745 10741 10738 10736 10733 10730 10727
10834 10834 10834 10832 10829 10827 10824 10822 10819 10817 10814 10813 10810 10807 10804 10801 10798 10795 10792 10788 10786 10783 10781 10778 10775 10773 10770 10767 10763 10760 10757 10754 10750 10747 10744 10741 10737 10733 10730 10726 10723 10719 10717
10827 10827 10825 10825 10822 10821 10818 10815 10813 10811 10808 10805 10803 10800 10798 10794 10792 10789 10786 10782 10779 10776 10773 10770 10767 10764 10762 10759 10756 10752 10749 10745 10742 10738 10733 10729 10726 10722 10718 10714 10711 10709 10705
10818 10818 10818 10816 10813 10812 10811 10809 10805 10803 10800 10796 10794 10791 10789 10787 10784 10781 10778 10774 10771 10768 10765 10761 10758 10755 10752 10749 10746 10742 10738 10735 10731 10727 10723 10719 10715 10711 10707 10702 10698 10695 10691
10808 10808 10809 10807 10804 10802 10801 10799 10797 10794 10791 10788 10785 10782 10780 10777 10774 10772 10769 10766 10762 10759 10754 10751 10748 10745 10742 10739 10735 10731 10726 10723 10718 10713 10709 10704 10700 10696 10692 10688 10685 10681 10677
10797 10798 10798 10797 10794 10793 10792 10789 10787 10785 10782 10780 10776 10773 10769 10766 10763 10760 10757 10754 10751 10748 10743 10740 10737 10734 10731 10727 10722 10717 10713 10709 10704 10699 10694 10690 10686 10681 10676 10671 10668 10664 10661
10786 10786 10786 10785 10784 10783 10782 10780 10778 10775 10772 10770 10766 10763 10758 10755 10752 10748 10745 10743 10739 10735 10730 10725 10723 10720 10717 10714 10709 10704 10699 10696 10691 10685 10679 10674 10669 10664 10660 10655 10651 10647 10642
10776 10775 10774 10774 10773 10772 10771 10770 10768 10765 10762 10759 10756 10753 10748 10744 10741 10736 10732 10729 10725 10720 10715 10711 10708 10706 10702 10698 10693 10689 10685 10680 10676 10670 10663 10657 10650 10645 10641 10637 10633 10629 10625
10763 10764 10763 10762 10762 10760 10759 10758 10756 10754 10751 10747 10744 10741 10736 10728 10726 10721 10717 10714 10708 10703 10698 10693 10691 10690 10687 10683 10678 10674 10668 10662 10655 10650 10644 10638 10633 10628 10623 10619 10614 10611 10606
10754 10754 10751 10750 10750 10749 10747 10745 10743 10741 10738 10734 10730 10727 10724 10719 10713 10707 10698 10696 10692 10686 10680 10675 10673 10671 10669 10664 10661 10655 10649 10643 10637 10631 10625 10619 10614 10609 10604 10599 10595 10591 10586
10743 10744 10740 10739 10738 10736 10733 10731 10729 10728 10723 10720 10716 10711 10707 10704 10700 10699 10693 10683 10676 10668 10660 10655 10651 10649 10645 10640 10636 10631 10627 10622 10616 10611 10605 10600 10595 10590 10584 10579 10573 10569 10565
10729 10731 10728 10727 10725 10723 10720 10718 10716 10713 10709 10704 10700 10696 10694 10690 10685 10684 10681 10674 10665 10654 10643 10640 10634 10633 10625 10617 10612 10608 10602 10597 10593 10587 10582 10577 10573 10568 10563 10557 10552 10547 10543
10713 10716 10714 10712 10710 10709 10705 10704 10703 10700 10692 10688 10684 10680 10677 10674 10670 10666 10664 10661 10654 10646 10632 10618 10617 10611 10604 10596 10589 10584 10577 10572 10569 10564 10560 10556 10551 10546 10540 10536 10532 10527 10522
10697 10700 10698 10697 10696 10695 10690 10687 10688 10686 10678 10674 10669 10665 10661 10656 10653 10649 10645 10640 10638 10634 10623 10602 10596 10590 10582 10574 10569 10562 10557 10550 10544 10541 10539 10534 10528 10522 10518 10513 10509 10505 10499
10681 10683 10682 10680 10681 10678 10675 10674 10673 10671 10667 10659 10654 10648 10643 10637 10634 10630 10625 10620 10615 10612 10606 10591 10581 10572 10562 10553 10547 10542 10537 10529 10523 10518 10514 10513 10509 10503 10497 10491 10487 10482 10475
10668 10666 10667 10664 10663 10660 10658 10656 10654 10654 10648 10642 10637 10630 10625 10620 10616 10611 10604 10599 10592 10584 10578 10568 10561 10553 10545 10535 10527 10522 10516 10511 10502 10497 10494 10491 10488 10483 10477 10471 10465 10459 10453
10648 10651 10651 10648 10645 10643 10641 10637 10636 10636 10628 10624 10618 10614 10609 10603 10600 10594 10586 10577 10570 10560 10553 10539 10535 10531 10524 10517 10508 10503 10499 10494 10486 10481 10478 10474 10471 10465 10458 10451 10444 10436 10427
10632 10633 10633 10630 10627 10625 10622 10621 10619 10618 10614 10605 10597 10597 10590 10584 10580 10573 10563 10555 10546 10537 10529 10521 10511 10508 10505 10498 10491 10484 10479 10475 10469 10464 10459 10455 10451 10444 10436 10428 10420 10412 10403
10613 10615 10614 10614 10611 10607 10604 10603 10602 10602 10594 10589 10583 10576 10569 10564 10560 10551 10541 10533 10524 10514 10507 10501 10494 10488 10483 10478 10471 10467 10463 10458 10452 10449 10442 10437 10430 10422 10413 10405 10397 10387 10380
10594 10595 10596 10595 10592 10588 10587 10585 10584 10585 10579 10573 10565 10560 10554 10548 10540 10529 10521 10513 10504 10493 10487 10480 10474 10469 10465 10460 10455 10447 10443 10439 10434 10431 10425 10417 10410 10402 10391 10384 10376 10368 10358
10574 10576 10577 10577 10574 10571 10570 10568 10566 10566 10561 10556 10549 10540 10534 10528 10519 10509 10500 10493 10486 10475 10468 10461 10456 10450 10446 10440 10436 10430 10422 10417 10413 10408 10403 10396 10388 10380 10372 10364 10355 10344 10328
10554 10557 10558 10558 10556 10554 10552 10550 10547 10544 10541 10535 10529 10524 10518 10509 10499 10489 10481 10476 10467 10459 10452 10445 10438 10432 10427 10422 10417 10412 10405 10397 10391 10386 10381 10375 10368 10359 10351 10342 10333 10320 10307
10532 10535 10536 10536 10537 10536 10533 10530 10527 10524 10520 10514 10509 10504 10497 10489 10479 10471 10464 10456 10450 10444 10435 10426 10418 10414 10406 10401 10396 10391 10386 10379 10373 10366 10359 10355 10349 10341 10333 10321 10308 10295 10284
10512 10515 10516 10515 10516 10516 10512 10511 10507 10503 10498 10494 10488 10482 10476 10469 10460 10451 10444 10439 10434 10425 10417 10409 10400 10394 10387 10380 10376 10370 10364 10359 10354 10348 10343 10335 10329 10321 10310 10297 10287 10272 10263
10491 10495 10494 10493 10493 10494 10494 10493 10487 10484 10479 10473 10467 10462 10455 10449 10441 10432 10427 10422 10416 10407 10398 10391 10383 10376 10370 10363 10357 10352 10345 10339 10334 10329 10324 10317 10308 10301 10289 10277 10265 10253 10244
10472 10473 10474 10471 10470 10471 10473 10471 10469 10465 10460 10453 10447 10442 10436 10431 10422 10415 10409 10403 10397 10389 10380 10371 10364 10358 10352 10346 10339 10333 10327 10321 10316 10309 10302 10294 10285 10279 10268 10258 10247 10234 10227